Simultaneous Nadir Overpasses (SNOs) Predictions

Prediction of SNOs between AQUA and NPP Satellite Orbit:

Table of predicted SNOs for the next 14.0 days since TLE Epoch: 4/21/2012
Index Date (AQUA) Time (AQUA) Lat,Lon (AQUA) SZA (AQUA ) Date (NPP) Time (NPP) Lat,Lon (NPP) SZA (NPP ) Distance(km) Time Diff (sec)
1 04/21/2012 22:38:28 76.83, 82.27 84.14 04/21/2012 22:37:20 76.84, 82.28 84.19 0.32 68
2 04/21/2012 23:27:40 -77.55,-107.34 96.74 04/21/2012 23:27:49 -77.54,-107.39 96.74 1.34 9
3 04/24/2012 14:54:50 77.16,-160.64 82.86 04/24/2012 14:54:06 77.16,-160.62 82.89 0.48 44
4 04/24/2012 15:44:04 -77.77, 9.50 97.92 04/24/2012 15:44:37 -77.77, 9.45 97.94 1.18 33
5 04/27/2012 07:11:14 77.38, -43.91 81.72 04/27/2012 07:10:54 77.38, -43.90 81.74 0.22 20
6 04/27/2012 08:00:28 -77.98, 126.33 99.05 04/27/2012 08:01:25 -77.98, 126.27 99.09 1.39 57
7 04/29/2012 22:38:25 -76.96, -97.27 98.60 04/29/2012 22:37:11 -76.97, -97.19 98.56 1.94 74
8 04/29/2012 23:27:37 77.58, 72.82 80.64 04/29/2012 23:27:41 77.58, 72.80 80.64 0.46 4
9 05/02/2012 14:54:49 -77.16, 19.38 99.65 05/02/2012 14:53:59 -77.16, 19.41 99.61 0.75 50




NCC Satellite Simultaneous Nadir Overpasses (SNOs) Prediction Service
